STARLINK-31704, 59586

Orbit data source: Space-Track

STARLINK-31704, 59586 is a payload satellite owned by SpaceX/Seattle (US) in LEO that was launched on Tue, 23 Apr 2024 UTC via an FALCON 9 launch vehicle from the Air Force Eastern Test Range (AFETR). Payload-class satellites include a variety of spacecraft equipped with specific instruments for various scientific and technological missions. These include communications satellites like Starlink; space stations such as the ISS; scientific satellites like the Hubble; Earth observation satellites from companies like Planet Labs, Umbra, and HawkEye 360; GPS; miniature CubeSats for education and research; and military/defense satellites.

Loading next visibility...
Identifier
59586, 2024-076Y
Orbit
LEO
Country
Flag of USUS
Related business
Manufacturer
SpaceX/Seattle
Mission
Operational Commercial Communications
Bus & Motor
STARLINK V2M, Unknown motor
Mass
730 kg wet, ~700 kg dry
Launch date (UTC)
2024-04-23 (1 year ago)
Launch vehicle
FALCON 9
Launch site
Air Force Eastern Test Range (AFETR)
Object type
Payload
Rocket body
Debris
Shape & HBR
Box + 2 Pan, 17.7 m
Radar Cross Section
33.884 m², Large (>1 m²)

Expand to show TLE details & history
Last TLE update: 7 hours ago

TLE from 7 hours ago
0 STARLINK-31704
1 59586U 24076Y   25289.16670139  .00048509  00000-0  17609-2 0  9992
2 59586  43.0009  61.6835 0001300 267.3570 242.7883 15.27576861  5911
Epoch: 2025-10-16T04:00Z
TLE epoch observation values (Epoch: 2025-10-16T04:00:03.000Z)
Latitude
19.91688°
Longitude
134.01062°
Altitude
482.805 km
Speed
7.627 km/s
True Right ascension
14h 35m 48s
True Declination
19° 48' 09"
Sunlit
Object was in daylight at epoch
Visualization orbit readout
Latitude
Unknown
Longitude
Unknown
Altitude
Unknown
Speed
Unknown
Apparent Right ascension
Unknown
Apparent Declination
Unknown
Sunlit
N/A
Visualization observer readout
Local Sidereal Time
05:59:16
Azimuth
Unknown
Elevation
Unknown
Doppler factor
Unknown
Orbital elements
Apogee altitude
485.896 km
Perigee altitude
484.111 km
Semi-major axis
6,863.141 km
Eccentricity
0.00013
Inclination
43.0009°
RAAN
61.6835°
Arg. of periapsis
267.357°
True anomaly
242.77505°
Mean anomaly
242.7883°
Eccentric anomaly
242.78168°
Mean motion
3.81732 °/min
Orbital period
94.31 mins
BSTAR
0.0017609
Loading maneuver chart data...
Computing Atmospheric mass density...
Loading historical data...
Loading historical data...
Loading historical data...
Loading historical data...
Loading historical data...
Loading historical data...
Loading historical data...

Documentation

Showing up to 5 results
|